Regional Weather Roundup
Issued by NWS

Home | Current Version | Previous Version | Text Only | Print | Product List | Glossary Off
Versions: 1 2 3 4 5 6 7 8 9 10 11 12 13 14 15 16 17 18 19 20 21 22 23 24 25 26 27 28 29 30 31 32 33 34 35 36 37 38 39 40 41 42 43 44 45 46 47 48 49 50

674
ASUS43 KIND 150909
RWRIN

WEATHER ROUNDUP FOR INDIANA
NATIONAL WEATHER SERVICE INDIANAPOLIS IN
400 AM EST FRI DEC 15 2017

NOTE: "FAIR" INDICATES FEW OR NO CLOUDS BELOW 12,000 FEET WITH NO
SIGNIFICANT WEATHER AND/OR OBSTRUCTIONS TO VISIBILITY.

* - STATION DOES NOT REPORT WEATHER SUCH AS PRECIPITATION OR FOG.

+ - STATION NOT QUALITY CONTROLLED BY THE NATIONAL WEATHER SERVICE.
    USE DATA WITH CAUTION...ESPECIALLY DEWPOINT AND RELATIVE
    HUMIDITY OBSERVATIONS.

INZ001>003-010>013-019-020-151000-
NORTHWEST INDIANA

CITY           SKY/WX    TMP DP  RH WIND       PRES   REMARKS
GARY /AIRPORT/ CLOUDY    24  13  65 S5        29.99F WCI  18
KNOX *+        CLOUDY    18  14  86 CALM      30.00S
LA PORTE +     CLOUDY    15  13  92 SW5       29.98F WCI   7
MICHIGAN CITY+ CLOUDY    21  12  68 S8        29.98F WCI  12
MONTICELLO +   PTCLDY    19  14  80 SW3       30.01S
RENSSELAER +   CLOUDY    19  14  79 SW5       30.01F WCI  13
VALPARAISO     CLOUDY    20  13  74 SW7       29.98F WCI  11

$$

LMZ046-743>745-151000-
SOUTHERN LAKE MICHIGAN

STATION/POSITION TIME  TEMP    WIND        PRES    WAVE
                       AIR SEA DIR/SP/G            HT
                 (UTC) (F)     (DEG/KT/KT) (MB)    (FT)
BURNS HARBOR     0805   22     200/  8/ 11 1016.3
MICHIGAN CITY    0840   21     180/ 11/ 14   N/A

$$

INZ004-005-014>016-021>024-151000-
NORTH CENTRAL INDIANA

CITY           SKY/WX    TMP DP  RH WIND       PRES   REMARKS
GOSHEN         CLOUDY    18  12  77 SW6       29.98S WCI  10
LOGANSPORT +   PTCLDY    21  18  86 W5        30.01S WCI  15
PERU/GRISSOM   CLOUDY    22  17  78 SW7       29.98F WCI  14
ROCHESTER +    CLOUDY    23  18  80 CALM      29.99F
SOUTH BEND     CLOUDY    16  12  84 SW7       29.98S WCI   6
WARSAW +       MOCLDY    19  14  79 CALM      29.99S

$$

INZ006>009-017-018-025>027-151000-
NORTHEAST INDIANA

CITY           SKY/WX    TMP DP  RH WIND       PRES   REMARKS
AUBURN +       CLOUDY    23  14  68 CALM      29.99F
FORT WAYNE     CLOUDY    23  17  78 S8        29.99F WCI  14
HUNTINGTON +   CLOUDY    23  15  71 SW5       29.98F WCI  17
KENDALLVILLE + CLOUDY    20  13  73 SW5       29.96F WCI  14

$$

INZ028-029-035-036-043>045-051>053-151000-
WEST CENTRAL INDIANA

CITY           SKY/WX    TMP DP  RH WIND       PRES   REMARKS
CRAWFORDSVL +  PTCLDY    21  17  84 SW6         N/A  WCI  13
GREENCASTLE +  CLOUDY    27  14  59 CALM      30.04S
LAFAYETTE      PTCLDY    19  16  88 W3        30.03S
TERRE HAUTE    CLOUDY    27  17  66 W5        30.06R WCI  22

$$

INZ030>032-037>040-046>048-054>057-064-065-151000-
CENTRAL INDIANA

CITY           SKY/WX    TMP DP  RH WIND       PRES   REMARKS
FRANKFORT +    PTCLDY    25  18  74 SW6       30.02S WCI  18
GREENWOOD *+   CLOUDY    27  20  73 S6        30.03S WCI  21
INDIANAPOLIS   CLOUDY    25  15  66 S7        30.03S WCI  17
-EAGLE CREEK   CLOUDY    26  15  63 SW3       30.02S
KOKOMO +       CLOUDY    24  16  71 SW8       30.00F WCI  15
MT COMFORT *+  CLOUDY    21  19  93 S6        30.02S WCI  14
SHELBYVILLE    CLOUDY    21  15  78 S5        30.03S WCI  15
ZIONSVILLE +   CLOUDY    24  15  70 S6        30.01F WCI  17

$$

INZ033-034-041-042-049-050-058-059-151000-
EAST CENTRAL INDIANA

CITY           SKY/WX    TMP DP  RH WIND       PRES   REMARKS
MUNCIE         CLOUDY    24  14  65 S8        30.00F WCI  15
RICHMOND +     PTCLDY    18  16  93 S6        30.01F WCI   9

$$

INZ060-061-067>069-081>083-085>088-151000-
SOUTHWEST INDIANA

CITY           SKY/WX    TMP DP  RH WIND       PRES   REMARKS
EVANSVILLE     CLOUDY    30  23  75 W5        30.10R WCI  25
HUNTINGBURG +  CLOUDY    29  23  78 W5        30.08S WCI  24
WASHINGTON +   CLOUDY    29  21  70 W5        30.07S WCI  24

$$

INZ062-063-066-070>080-084-089>092-151000-
SOUTH CENTRAL AND SOUTHEAST INDIANA

CITY           SKY/WX    TMP DP  RH WIND       PRES   REMARKS
BLOOMINGTON    CLOUDY    26  16  65 SW3       30.04S
MADISON *+     PTCLDY    25  19  80 CALM      30.06F
NORTH VERNON + PTCLDY    19  16  86 CALM      30.05F
SEYMOUR +      MOCLDY    23  18  80 CALM      30.06S

$$





USA.gov is the U.S. government's official web portal to all federal, state and local government web resources and services.